AAL1528 KDFW-KOKC

Flight info

Callsign AAL1528
Flight time 0h 37m
Altitude 28000
Route BLECO8 ZEMMA TSDEL3
Aircraft MD83/M-SDFGIRWY/S

Departure

Time 2026-05-08 18:20
Airport Dallas Fort Worth International Airport (KDFW)

Arrival

Time 2026-05-08 18:57
Airport OKC Will Rogers World Airport (KOKC)
Time Latitude Longitude Altitude Speed Heading
2026-05-08 17:46 32.89965 -97.03576 588 ft 0 kts 240°
2026-05-08 18:11 32.89970 -97.03566 588 ft 4 kts 245°
2026-05-08 18:12 32.89976 -97.03537 588 ft 4 kts 271°
2026-05-08 18:12 32.89970 -97.03510 587 ft 4 kts 308°
2026-05-08 18:12 32.89962 -97.03501 587 ft 0 kts 322°
2026-05-08 18:14 32.89967 -97.03505 587 ft 4 kts 322°
2026-05-08 18:14 32.89996 -97.03531 587 ft 6 kts 322°
2026-05-08 18:15 32.90033 -97.03565 587 ft 7 kts 327°
2026-05-08 18:15 32.90085 -97.03535 587 ft 13 kts 69°
2026-05-08 18:15 32.90089 -97.03424 587 ft 14 kts 90°
2026-05-08 18:15 32.90094 -97.03320 586 ft 3 kts 58°
2026-05-08 18:16 32.90113 -97.03272 582 ft 14 kts 86°
2026-05-08 18:16 32.90158 -97.03191 577 ft 15 kts
2026-05-08 18:16 32.90295 -97.03190 575 ft 21 kts
2026-05-08 18:16 32.90442 -97.03189 576 ft 21 kts
2026-05-08 18:17 32.90591 -97.03188 577 ft 22 kts
2026-05-08 18:17 32.90744 -97.03189 579 ft 22 kts 359°
2026-05-08 18:17 32.90888 -97.03187 580 ft 20 kts
2026-05-08 18:17 32.91034 -97.03186 580 ft 22 kts
2026-05-08 18:18 32.91187 -97.03186 581 ft 22 kts
2026-05-08 18:18 32.91337 -97.03185 581 ft 22 kts
2026-05-08 18:18 32.91471 -97.03176 580 ft 10 kts 33°
2026-05-08 18:18 32.91488 -97.03077 578 ft 16 kts 88°
2026-05-08 18:19 32.91460 -97.02992 581 ft 9 kts 159°
2026-05-08 18:19 32.91358 -97.02986 579 ft 29 kts 180°
2026-05-08 18:19 32.90948 -97.02992 578 ft 92 kts 180°
2026-05-08 18:19 32.90102 -97.02998 580 ft 149 kts 181°
2026-05-08 18:20 32.89024 -97.03012 1162 ft 151 kts 181°
2026-05-08 18:20 32.87979 -97.03027 1922 ft 153 kts 179°
2026-05-08 18:20 32.86866 -97.03021 2378 ft 168 kts 178°
2026-05-08 18:20 32.85695 -97.02946 2782 ft 181 kts 175°
2026-05-08 18:21 32.84341 -97.02611 2983 ft 218 kts 163°
2026-05-08 18:21 32.82842 -97.01907 3383 ft 243 kts 159°
2026-05-08 18:21 32.81237 -97.01058 3941 ft 257 kts 158°
2026-05-08 18:21 32.79581 -97.00172 4707 ft 266 kts 158°
2026-05-08 18:22 32.78076 -96.98838 5429 ft 277 kts 129°
2026-05-08 18:22 32.77205 -96.96796 6287 ft 280 kts 112°
2026-05-08 18:22 32.76556 -96.94588 6944 ft 287 kts 108°
2026-05-08 18:22 32.76306 -96.92205 7524 ft 299 kts 89°
2026-05-08 18:23 32.76448 -96.89696 8065 ft 309 kts 85°
2026-05-08 18:23 32.76661 -96.87141 8718 ft 314 kts 81°
2026-05-08 18:23 32.77420 -96.84713 9398 ft 317 kts 54°
2026-05-08 18:23 32.78977 -96.82898 10077 ft 314 kts 26°
2026-05-08 18:24 32.81017 -96.81922 10357 ft 325 kts
2026-05-08 18:24 32.83288 -96.81323 10555 ft 343 kts
2026-05-08 18:24 32.85668 -96.80795 10724 ft 360 kts
2026-05-08 18:24 32.88204 -96.80619 11023 ft 369 kts 354°
2026-05-08 18:25 32.90772 -96.80707 11663 ft 370 kts 352°
2026-05-08 18:25 32.93384 -96.80830 12378 ft 371 kts 352°
2026-05-08 18:25 32.95939 -96.80925 13026 ft 374 kts 353°
2026-05-08 18:25 32.98535 -96.81144 13753 ft 373 kts 341°
2026-05-08 18:26 33.00902 -96.82218 14730 ft 354 kts 327°
2026-05-08 18:26 33.03040 -96.83561 15789 ft 342 kts 325°
2026-05-08 18:26 33.05119 -96.84927 16471 ft 342 kts 324°
2026-05-08 18:26 33.07204 -96.86329 16958 ft 347 kts 324°
2026-05-08 18:27 33.09321 -96.87763 17454 ft 352 kts 324°
2026-05-08 18:27 33.10769 -96.88738 17806 ft 355 kts 325°
2026-05-08 18:27 33.13641 -96.90640 18530 ft 358 kts 326°
2026-05-08 18:27 33.15838 -96.92067 19012 ft 361 kts 326°
2026-05-08 18:28 33.18056 -96.93493 19512 ft 364 kts 326°
2026-05-08 18:28 33.20294 -96.94925 20023 ft 366 kts 326°
2026-05-08 18:28 33.22545 -96.96364 20500 ft 369 kts 326°
2026-05-08 18:28 33.24816 -96.97821 20961 ft 372 kts 326°
2026-05-08 18:29 33.27106 -96.99292 21471 ft 374 kts 325°
2026-05-08 18:29 33.29408 -97.00772 22005 ft 376 kts 325°
2026-05-08 18:29 33.31719 -97.02260 22536 ft 378 kts 325°
2026-05-08 18:29 33.34044 -97.03763 23007 ft 382 kts 325°
2026-05-08 18:30 33.36386 -97.05280 23482 ft 385 kts 325°
2026-05-08 18:30 33.38754 -97.06816 23892 ft 388 kts 325°
2026-05-08 18:30 33.41128 -97.08356 24345 ft 389 kts 324°
2026-05-08 18:30 33.43530 -97.09890 24758 ft 394 kts 328°
2026-05-08 18:31 33.46215 -97.10821 25107 ft 415 kts 348°
2026-05-08 18:31 33.49159 -97.10746 25538 ft 428 kts 359°
2026-05-08 18:31 33.52122 -97.10297 25979 ft 431 kts
2026-05-08 18:31 33.55104 -97.09800 26333 ft 435 kts
2026-05-08 18:32 33.58116 -97.09306 26690 ft 439 kts
2026-05-08 18:32 33.61156 -97.08835 27040 ft 442 kts
2026-05-08 18:32 33.64184 -97.08403 27397 ft 445 kts 359°
2026-05-08 18:32 33.67273 -97.07997 27703 ft 449 kts 359°
2026-05-08 18:33 33.70399 -97.07610 27842 ft 453 kts 359°
2026-05-08 18:33 33.73546 -97.07229 27912 ft 456 kts 359°
2026-05-08 18:33 33.76712 -97.06844 27948 ft 457 kts 359°
2026-05-08 18:33 33.79869 -97.06452 27945 ft 455 kts 359°
2026-05-08 18:34 33.83003 -97.06058 27943 ft 453 kts 359°
2026-05-08 18:34 33.86129 -97.05663 27945 ft 451 kts 359°
2026-05-08 18:34 33.89247 -97.05267 27944 ft 450 kts 359°
2026-05-08 18:34 33.92364 -97.04873 27938 ft 451 kts 359°
2026-05-08 18:35 33.95483 -97.04478 27940 ft 452 kts 359°
2026-05-08 18:35 33.98608 -97.04080 27939 ft 452 kts 359°
2026-05-08 18:35 34.01736 -97.03682 27969 ft 452 kts 359°
2026-05-08 18:35 34.04865 -97.03286 27953 ft 452 kts 359°
2026-05-08 18:36 34.07982 -97.02890 27945 ft 450 kts 359°
2026-05-08 18:36 34.11101 -97.02491 27947 ft 449 kts 359°
2026-05-08 18:36 34.14205 -97.02092 27943 ft 449 kts 359°
2026-05-08 18:36 34.17309 -97.01695 27940 ft 448 kts 359°
2026-05-08 18:37 34.20416 -97.01298 27950 ft 449 kts 359°
2026-05-08 18:37 34.23483 -97.00907 27946 ft 450 kts 359°
2026-05-08 18:37 34.26597 -97.00508 27945 ft 450 kts 359°
2026-05-08 18:37 34.29713 -97.00116 27965 ft 449 kts 359°
2026-05-08 18:38 34.32808 -96.99726 27928 ft 445 kts 360°
2026-05-08 18:38 34.35863 -96.99337 27822 ft 438 kts 358°
2026-05-08 18:38 34.38848 -96.99538 27402 ft 422 kts 340°
2026-05-08 18:38 34.41549 -97.00723 26582 ft 411 kts 328°
2026-05-08 18:39 34.44091 -97.02341 25563 ft 413 kts 325°
2026-05-08 18:39 34.46605 -97.04046 24655 ft 414 kts 325°
2026-05-08 18:39 34.49115 -97.05762 23806 ft 414 kts 325°
2026-05-08 18:39 34.51544 -97.07407 22911 ft 413 kts 326°
2026-05-08 18:40 34.54056 -97.09071 22074 ft 410 kts 326°
2026-05-08 18:40 34.56569 -97.10700 21258 ft 406 kts 327°
2026-05-08 18:40 34.59051 -97.12284 20487 ft 402 kts 327°
2026-05-08 18:40 34.61506 -97.13842 19743 ft 398 kts 327°
2026-05-08 18:41 34.63947 -97.15387 19011 ft 394 kts 327°
2026-05-08 18:41 34.66354 -97.16915 18282 ft 391 kts 327°
2026-05-08 18:41 34.68754 -97.18446 17461 ft 388 kts 327°
2026-05-08 18:41 34.71122 -97.19966 16886 ft 379 kts 327°
2026-05-08 18:42 34.73394 -97.21416 16790 ft 358 kts 327°
2026-05-08 18:42 34.75539 -97.22776 16704 ft 338 kts 327°
2026-05-08 18:42 34.77560 -97.24062 16626 ft 319 kts 326°
2026-05-08 18:42 34.79472 -97.25342 16504 ft 314 kts 323°
2026-05-08 18:43 34.81391 -97.26772 16270 ft 334 kts 322°
2026-05-08 18:43 34.83350 -97.28284 15990 ft 329 kts 322°
2026-05-08 18:43 34.85228 -97.29728 15671 ft 318 kts 322°
2026-05-08 18:43 34.87078 -97.31140 15346 ft 309 kts 323°
2026-05-08 18:44 34.88908 -97.32533 14986 ft 318 kts 323°
2026-05-08 18:44 34.90858 -97.34033 14628 ft 345 kts 323°
2026-05-08 18:44 34.92948 -97.35644 14273 ft 360 kts 324°
2026-05-08 18:44 34.95062 -97.37256 13918 ft 357 kts 324°
2026-05-08 18:45 34.97169 -97.38849 13544 ft 355 kts 324°
2026-05-08 18:45 34.99264 -97.40429 13144 ft 353 kts 324°
2026-05-08 18:45 35.01346 -97.42002 12755 ft 351 kts 325°
2026-05-08 18:45 35.03412 -97.43565 12408 ft 348 kts 325°
2026-05-08 18:46 35.05470 -97.45129 12079 ft 348 kts 325°
2026-05-08 18:46 35.07606 -97.46530 11756 ft 352 kts 338°
2026-05-08 18:46 35.09990 -97.47055 11482 ft 343 kts 353°
2026-05-08 18:46 35.12331 -97.47196 11181 ft 331 kts 354°
2026-05-08 18:47 35.14591 -97.47285 10862 ft 320 kts 355°
2026-05-08 18:47 35.16778 -97.47364 10618 ft 309 kts 355°
2026-05-08 18:47 35.18180 -97.47410 10491 ft 300 kts 355°
2026-05-08 18:47 35.20889 -97.47515 10312 ft 283 kts 354°
2026-05-08 18:48 35.22175 -97.47572 10137 ft 279 kts 353°
2026-05-08 18:48 35.24117 -97.47675 9701 ft 279 kts 354°
2026-05-08 18:48 35.26065 -97.47791 9200 ft 281 kts 353°
2026-05-08 18:48 35.27991 -97.47910 9016 ft 271 kts 353°
2026-05-08 18:49 35.30399 -97.48063 8830 ft 254 kts 353°
2026-05-08 18:49 35.32136 -97.48173 8629 ft 246 kts 353°
2026-05-08 18:49 35.33284 -97.48249 8435 ft 243 kts 353°
2026-05-08 18:49 35.34969 -97.48363 8094 ft 242 kts 353°
2026-05-08 18:50 35.37191 -97.48522 7614 ft 242 kts 352°
2026-05-08 18:50 35.38328 -97.48602 7351 ft 243 kts 352°
2026-05-08 18:50 35.40016 -97.48682 7006 ft 244 kts 355°
2026-05-08 18:50 35.41710 -97.48707 6650 ft 244 kts 356°
2026-05-08 18:51 35.43413 -97.48705 6326 ft 244 kts 356°
2026-05-08 18:51 35.45079 -97.48708 5916 ft 239 kts 355°
2026-05-08 18:51 35.46745 -97.48718 5476 ft 237 kts 355°
2026-05-08 18:51 35.48342 -97.48749 5177 ft 229 kts 355°
2026-05-08 18:52 35.49865 -97.48763 5042 ft 210 kts 354°
2026-05-08 18:52 35.51299 -97.48886 4705 ft 201 kts 339°
2026-05-08 18:52 35.52497 -97.49648 4247 ft 193 kts 312°
2026-05-08 18:52 35.53276 -97.50935 3959 ft 182 kts 290°
2026-05-08 18:53 35.53584 -97.52386 3665 ft 177 kts 267°
2026-05-08 18:53 35.53330 -97.53838 3477 ft 173 kts 248°
2026-05-08 18:53 35.52916 -97.55220 3304 ft 175 kts 246°
2026-05-08 18:53 35.52454 -97.56599 3238 ft 172 kts 243°
2026-05-08 18:54 35.51907 -97.57921 3122 ft 174 kts 235°
2026-05-08 18:54 35.51082 -97.58965 3120 ft 169 kts 211°
2026-05-08 18:54 35.49996 -97.59476 3039 ft 165 kts 187°
2026-05-08 18:54 35.48907 -97.59281 2795 ft 156 kts 165°
2026-05-08 18:55 35.47092 -97.58807 2529 ft 124 kts 185°
2026-05-08 18:55 35.46226 -97.58879 2308 ft 127 kts 182°
2026-05-08 18:55 35.45352 -97.58853 2239 ft 126 kts 182°
2026-05-08 18:56 35.44471 -97.58877 2153 ft 127 kts 183°
2026-05-08 18:56 35.43592 -97.58880 1957 ft 128 kts 180°
2026-05-08 18:56 35.42693 -97.58882 1806 ft 132 kts 181°
2026-05-08 18:56 35.41781 -97.58884 1639 ft 129 kts 182°
2026-05-08 18:57 35.40908 -97.58888 1415 ft 124 kts 185°
2026-05-08 18:57 35.40053 -97.58894 1294 ft 116 kts 184°
2026-05-08 18:57 35.39452 -97.58895 1292 ft 54 kts 180°
2026-05-08 18:57 35.39243 -97.58915 1294 ft 16 kts 211°
2026-05-08 18:58 35.39215 -97.59028 1292 ft 9 kts 269°
2026-05-08 18:58 35.39216 -97.59100 1292 ft 9 kts 271°
2026-05-08 18:58 35.39216 -97.59175 1293 ft 8 kts 270°
2026-05-08 18:58 35.39242 -97.59217 1295 ft 6 kts 342°
2026-05-08 18:59 35.39297 -97.59222 1295 ft 12 kts 358°
2026-05-08 18:59 35.39375 -97.59244 1296 ft 10 kts 310°
2026-05-08 18:59 35.39384 -97.59324 1297 ft 9 kts 272°
2026-05-08 18:59 35.39406 -97.59375 1298 ft 7 kts 321°
2026-05-08 19:00 35.39448 -97.59401 1298 ft 6 kts 335°
2026-05-08 19:00 35.39455 -97.59404 1298 ft 0 kts 336°